Location: York
(31.8935°S, 116.7682°E)
Time: 23:01:43
(UTC+08:00)

Vanguard 2 Rocket - All Passes

Search period start: 22 June 2021 00:00
Search period end: 02 July 2021 00:00
Orbit: 554 x 3326 km, 32.9° (Epoch: 21 June)

Date Brightness Start Highest point End Pass type
(mag) Time Alt. Az. Time Alt. Az. Time Alt. Az.
22 Jun - 05:03:33 10° NNE 05:04:52 11° NNE 05:06:12 10° NE visible
22 Jun - 07:13:03 10° WNW 07:17:02 62° NNE 07:22:28 10° E daylight
22 Jun - 09:25:06 10° W 09:30:10 81° S 09:38:49 10° E daylight
22 Jun - 11:37:13 10° W 11:44:14 70° NNW 11:57:02 10° ENE daylight
22 Jun - 13:50:32 10° W 13:59:31 36° NNW 14:13:40 10° NNE daylight
22 Jun - 16:10:15 10° WNW 16:16:09 13° NW 16:22:55 10° NNW daylight
23 Jun - 06:14:09 10° NW 06:17:51 38° NNE 06:22:05 10° E visible
23 Jun - 08:26:06 10° W 08:30:31 82° S 08:37:23 10° E daylight
23 Jun - 10:38:10 10° W 10:44:07 81° NNW 10:54:50 10° ENE daylight
23 Jun - 12:50:47 10° W 12:58:43 44° NNW 13:12:09 10° NE daylight
23 Jun - 15:06:58 10° WNW 15:14:46 19° NNW 15:24:52 10° N daylight
24 Jun - 05:15:24 10° NNW 05:18:41 23° NNE 05:21:55 10° E visible
24 Jun - 07:27:02 10° WNW 07:31:04 87° NNE 07:36:34 10° E daylight
24 Jun - 09:39:13 10° W 09:44:17 88° S 09:52:57 10° E daylight
24 Jun - 11:51:26 10° W 11:58:17 53° NNW 12:10:23 10° NE daylight
24 Jun - 14:05:45 10° WNW 14:13:40 24° NNW 14:24:59 10° NNE daylight
25 Jun - 04:17:01 10° N 04:19:23 14° NNE 04:21:32 10° ENE visible
25 Jun - 06:27:52 10° WNW 06:31:47 64° NNE 06:36:18 10° E visible
25 Jun - 08:40:14 10° W 08:44:40 80° S 08:51:32 10° E daylight
25 Jun - 10:52:19 10° W 10:58:11 64° NNW 11:08:35 10° ENE daylight
25 Jun - 13:05:31 10° W 13:12:52 30° NNW 13:24:17 10° NNE daylight
26 Jun - 05:28:38 10° NW 05:32:36 41° NNE 05:36:26 10° E visible
26 Jun - 07:41:10 10° W 07:45:11 79° S 07:50:42 10° E daylight
26 Jun - 09:53:19 10° W 09:58:23 77° NNW 10:06:57 10° ENE daylight
26 Jun - 12:05:52 10° W 12:12:24 37° NNW 12:23:10 10° NE daylight
26 Jun - 14:22:39 10° WNW 14:27:56 14° NNW 14:34:27 10° N daylight
27 Jun - 04:29:21 10° NW 04:33:20 27° NNE 04:36:45 10° E visible
27 Jun - 06:41:54 10° W 06:45:51 90° ESE 06:50:25 10° E visible
27 Jun - 08:54:22 10° W 08:58:47 90° S 09:05:40 10° E daylight
27 Jun - 11:06:35 10° W 11:12:16 45° NNW 11:21:54 10° NE daylight
27 Jun - 13:21:08 10° WNW 13:27:07 19° NNW 13:35:16 10° N daylight
28 Jun - 03:30:09 10° NNW 03:33:55 19° NNE 03:37:00 10° ENE visible
28 Jun - 05:42:24 10° WNW 05:46:35 68° NNE 05:50:38 10° E visible
28 Jun - 07:55:18 10° W 07:59:20 79° S 08:04:50 10° E daylight
28 Jun - 10:07:29 10° W 10:12:27 56° NNW 10:20:40 10° ENE daylight
28 Jun - 12:20:51 10° WNW 12:26:36 24° NNW 12:35:07 10° NNE daylight
29 Jun - 02:31:14 10° N 02:34:16 14° NNE 02:36:49 10° NE night (unlit)
29 Jun - 04:42:41 10° NW 04:47:21 47° NNE 04:51:10 10° E visible
29 Jun - 06:56:01 10° W 06:59:59 77° S 07:04:33 10° E daylight
29 Jun - 09:08:28 10° W 09:12:52 71° NNW 09:19:39 10° ENE daylight
29 Jun - 11:21:10 10° W 11:26:26 29° NNW 11:34:35 10° NNE daylight
30 Jun - 03:42:48 10° NW 03:48:00 33° NNE 03:51:50 10° E visible
30 Jun - 05:56:26 10° W 06:00:41 87° S 06:04:45 10° E visible
30 Jun - 08:09:25 10° W 08:13:28 88° N 08:18:57 10° ENE daylight
30 Jun - 10:21:50 10° W 10:26:33 37° NNW 10:33:55 10° NE daylight
30 Jun - 12:37:18 10° NW 12:40:55 13° NNW 12:45:22 10° N daylight
01 Jul - 02:42:50 10° NNW 02:48:27 25° NNE 02:52:26 10° ENE night (unlit)
01 Jul - 04:56:29 10° WNW 05:01:25 74° NNE 05:05:21 10° E visible
01 Jul - 07:10:10 10° W 07:14:08 79° S 07:18:41 10° E daylight
01 Jul - 09:22:40 10° W 09:26:56 47° NNW 09:33:19 10° NE daylight
01 Jul - 11:36:32 10° WNW 11:40:40 17° NNW 11:46:12 10° NNE daylight
